OneWeb SL0205

operational
NORAD ID: 48226 Int'l Des: 2021-031 Owner: ONEWEBN Country: UK Constellation: oneweb
LEOCIRCULARPOLARONEWEB_TYPE

About OneWeb SL0205

Description loading...

Live Position

Loading 3D Globe...

Upcoming Passes

Altitude History

Altitude vs Time

uPlot chart will show altitude changes over time

Two-Line Element Set

1 48226U 21031S 25257.51525591 -.00000035 00000-0 -12815-3 0 9993
2 48226 87.9079 344.5813 0002037 105.3542 254.7813 13.14504166212055
Epoch: Sep 14, 2025 • Age: 21 hours

Current Status

Altitude 1217.9 km
Velocity 7.25 km/s
Sub-Earth Point 82.88°N, 18.65°E
Launch Date Apr 25, 2021
Age 4.3 years
Type internet

Technical Details

Classification Payload
Mass 148.00 kg
Dry Mass 140.00 kg
Total Mass 148.00 kg
Length 1.30 m
Diameter 1.00 m
Span 5.00 m
Shape Trapezoid+2 pan
Manufacturer ONEWUS
Bus Type ARROW
Phase Status In Orbit
Owner/State ONEWEBN/UK

Large Constellations

Loading constellations...